TimeMST,TemperatureF,Dew PointF,Humidity,Sea Level PressureIn,VisibilityMPH,Wind Direction,Wind SpeedMPH,Gust SpeedMPH,PrecipitationIn,Events,Conditions,WindDirDegrees,DateUTC
12:15 AM,30.2,24.8,80,29.68,10.0,SSW,9.2,-,N/A,,Overcast,200,2012-12-12 07:15:00
12:35 AM,30.2,24.8,80,29.68,10.0,SSW,11.5,-,N/A,,Mostly Cloudy,200,2012-12-12 07:35:00
12:55 AM,30.2,24.8,80,29.67,10.0,SSW,12.7,-,N/A,,Mostly Cloudy,210,2012-12-12 07:55:00
1:15 AM,30.2,24.8,80,29.67,10.0,SSW,10.4,-,N/A,,Overcast,210,2012-12-12 08:15:00
1:35 AM,30.2,24.8,80,29.66,10.0,SSW,8.1,-,N/A,,Overcast,210,2012-12-12 08:35:00
1:55 AM,30.2,24.8,80,29.66,10.0,SSW,9.2,-,N/A,,Overcast,210,2012-12-12 08:55:00
2:15 AM,30.2,24.8,80,29.66,10.0,SW,9.2,-,N/A,,Overcast,220,2012-12-12 09:15:00
2:35 AM,30.2,24.8,80,29.65,10.0,SW,9.2,-,N/A,,Overcast,230,2012-12-12 09:35:00
2:55 AM,28.4,24.8,86,29.64,10.0,WSW,4.6,-,N/A,,Overcast,240,2012-12-12 09:55:00
3:15 AM,30.2,24.8,80,29.65,10.0,SW,5.8,-,N/A,,Overcast,230,2012-12-12 10:15:00
3:35 AM,28.4,24.8,86,29.64,10.0,WSW,6.9,-,N/A,,Overcast,250,2012-12-12 10:35:00
4:15 AM,28.4,23.0,80,29.63,10.0,WSW,4.6,-,N/A,,Overcast,240,2012-12-12 11:15:00
4:35 AM,28.4,23.0,80,29.63,10.0,WSW,5.8,-,N/A,,Overcast,240,2012-12-12 11:35:00
4:55 AM,28.4,23.0,80,29.63,10.0,SW,5.8,-,N/A,,Overcast,220,2012-12-12 11:55:00
5:15 AM,28.4,23.0,80,29.62,10.0,Calm,Calm,-,N/A,,Mostly Cloudy,0,2012-12-12 12:15:00
5:35 AM,26.6,21.2,80,29.63,10.0,SW,4.6,-,N/A,,Partly Cloudy,230,2012-12-12 12:35:00
5:55 AM,24.8,21.2,86,29.62,10.0,SSE,3.5,-,N/A,,Clear,150,2012-12-12 12:55:00
6:52 AM,24.8,21.2,86,29.62,10.0,Calm,Calm,-,N/A,,Scattered Clouds,0,2012-12-12 13:52:00
7:54 AM,26.6,21.2,80,29.62,10.0,South,9.2,-,N/A,,Overcast,190,2012-12-12 14:54:00
8:55 AM,28.4,23.0,80,29.63,10.0,SSW,4.6,-,N/A,,Overcast,210,2012-12-12 15:55:00
9:59 AM,30.2,28.4,93,29.64,5.0,South,20.7,-,N/A,Snow,Light Snow,170,2012-12-12 16:59:00
10:52 AM,32.0,28.4,87,29.66,6.0,SSE,16.1,24.2,N/A,Snow,Snow Showers,160,2012-12-12 17:52:00
11:51 AM,32.0,28.4,87,29.66,6.0,SSE,24.2,29.9,N/A,Snow,Light Snow,160,2012-12-12 18:51:00
12:53 PM,32.0,26.6,80,29.68,7.0,South,18.4,23.0,N/A,,Overcast,170,2012-12-12 19:53:00
1:55 PM,32.0,26.6,80,29.69,6.0,South,16.1,23.0,N/A,,Overcast,170,2012-12-12 20:55:00
2:55 PM,32.0,26.6,80,29.72,8.0,SSE,15.0,-,N/A,,Mostly Cloudy,160,2012-12-12 21:55:00
3:57 PM,32.0,21.2,64,29.75,10.0,South,13.8,-,N/A,,Mostly Cloudy,170,2012-12-12 22:57:00
5:51 PM,26.6,19.4,74,29.80,10.0,SSW,9.2,-,N/A,,Mostly Cloudy,200,2012-12-13 00:51:00
6:51 PM,26.6,21.2,80,29.81,10.0,SW,4.6,-,N/A,,Mostly Cloudy,220,2012-12-13 01:51:00
7:55 PM,26.6,21.2,80,29.82,10.0,SW,8.1,-,N/A,,Mostly Cloudy,230,2012-12-13 02:55:00
8:55 PM,26.6,24.8,93,29.83,10.0,SW,5.8,-,N/A,,Overcast,220,2012-12-13 03:55:00
9:15 PM,26.6,24.8,93,29.83,10.0,SW,5.8,-,N/A,,Overcast,230,2012-12-13 04:15:00
9:35 PM,26.6,24.8,93,29.84,10.0,South,4.6,-,N/A,,Overcast,190,2012-12-13 04:35:00
9:55 PM,26.6,24.8,93,29.84,10.0,SSE,5.8,-,N/A,,Overcast,160,2012-12-13 04:55:00
10:15 PM,26.6,24.8,93,29.84,3.0,South,4.6,-,N/A,,Overcast,190,2012-12-13 05:15:00
10:35 PM,24.8,24.8,100,29.84,7.0,SSE,3.5,-,N/A,,Mostly Cloudy,150,2012-12-13 05:35:00
10:55 PM,23.0,21.2,93,29.85,10.0,East,5.8,-,N/A,,Overcast,100,2012-12-13 05:55:00
11:35 PM,24.8,23.0,93,29.86,9.0,East,5.8,-,N/A,,Mostly Cloudy,100,2012-12-13 06:35:00
11:55 PM,24.8,23.0,93,29.85,10.0,East,5.8,-,N/A,,Overcast,90,2012-12-13 06:55:00